Precipitable_Water
0.48 0.46 0.47 0.45 0.44 0.45 0.42 0.47 0.53 0.52 0.53 0.59 0.59 0.57 0.54 0.57 0.58 0.58 0.60 0.61 0.61 0.64 0.66 0.65 0.64 0.62 0.64 0.68 0.73 0.83 0.84 0.81 0.86 0.98 1.16 1.34 1.32 1.33 1.39 1.33 1.32 1.38 1.40 1.38 1.32 1.18 1.09 1.03 1.10 1.25 1.26 1.22 1.17 1.09 1.02 0.96 0.93 0.89 0.88 0.86 0.82 0.79 0.79
0.49 0.51 0.52 0.52 0.52 0.44 0.48 0.46 0.47 0.51 0.55 0.51 0.55 0.60 0.57 0.56 0.57 0.57 0.59 0.58 0.58 0.59 0.61 0.62 0.66 0.70 0.70 0.66 0.66 0.73 0.84 0.90 0.89 0.88 0.94 1.07 1.27 1.31 1.34 1.29 1.24 1.21 1.25 1.28 1.28 1.25 1.09 1.01 1.02 1.09 1.15 1.24 1.22 1.19 1.13 1.10 1.03 0.98 0.92 0.90 0.89 0.87 0.86
0.53 0.52 0.54 0.52 0.49 0.45 0.50 0.46 0.50 0.54 0.56 0.58 0.57 0.52 0.52 0.54 0.51 0.51 0.51 0.54 0.56 0.58 0.58 0.58 0.61 0.64 0.67 0.67 0.65 0.65 0.75 0.83 0.96 0.96 0.89 0.93 1.05 1.20 1.26 1.30 1.25 1.22 1.21 1.20 1.21 1.20 1.17 1.14 1.03 1.05 1.13 1.17 1.12 1.15 1.21 1.16 1.12 1.07 1.00 0.96 0.92 0.90 0.88
0.51 0.52 0.46 0.47 0.53 0.46 0.49 0.50 0.48 0.52 0.52 0.54 0.54 0.59 0.57 0.53 0.53 0.51 0.47 0.44 0.48 0.51 0.56 0.58 0.56 0.56 0.60 0.66 0.69 0.68 0.68 0.75 0.77 0.85 0.91 0.96 1.00 1.05 1.19 1.26 1.25 1.24 1.18 1.11 1.12 1.18 1.15 1.10 1.09 1.07 1.07 1.12 1.20 1.20 1.25 1.25 1.21 1.16 1.09 1.05 1.00 0.93 0.88
0.51 0.47 0.46 0.50 0.52 0.47 0.44 0.46 0.51 0.49 0.53 0.54 0.54 0.54 0.59 0.59 0.56 0.52 0.51 0.49 0.48 0.47 0.46 0.52 0.54 0.58 0.61 0.61 0.62 0.64 0.63 0.65 0.72 0.79 0.88 0.90 0.91 0.94 0.99 1.10 1.15 1.21 1.25 1.24 1.21 1.20 1.16 1.09 1.09 1.07 1.08 1.05 1.15 1.27 1.37 1.34 1.31 1.24 1.17 1.14 1.14 1.08 1.00
0.54 0.50 0.50 0.50 0.51 0.48 0.49 0.49 0.49 0.46 0.49 0.49 0.56 0.55 0.52 0.51 0.54 0.51 0.51 0.52 0.51 0.51 0.50 0.50 0.50 0.52 0.53 0.56 0.57 0.56 0.59 0.60 0.63 0.69 0.74 0.85 0.90 0.84 0.85 0.93 0.98 1.06 1.09 1.12 1.12 1.11 1.11 1.12 1.08 1.02 1.07 1.13 0.99 1.06 1.28 1.39 1.34 1.35 1.28 1.24 1.27 1.23 1.18
0.52 0.51 0.50 0.48 0.51 0.48 0.50 0.50 0.47 0.46 0.46 0.47 0.46 0.48 0.51 0.52 0.49 0.51 0.50 0.49 0.49 0.50 0.51 0.52 0.50 0.49 0.47 0.52 0.55 0.53 0.54 0.59 0.61 0.60 0.63 0.73 0.83 0.92 0.96 0.90 0.91 0.93 0.95 0.97 0.95 0.97 0.96 0.97 0.96 0.99 0.98 1.02 1.06 1.06 1.15 1.24 1.33 1.34 1.33 1.34 1.34 1.33 1.29
0.53 0.50 0.49 0.49 0.53 0.49 0.47 0.47 0.49 0.48 0.46 0.47 0.49 0.52 0.56 0.55 0.53 0.51 0.51 0.51 0.51 0.50 0.50 0.50 0.51 0.53 0.52 0.51 0.53 0.55 0.54 0.54 0.57 0.62 0.62 0.63 0.67 0.72 0.89 0.95 0.89 0.89 0.92 0.94 0.96 0.89 0.94 0.93 0.91 0.93 0.96 0.84 0.90 0.97 1.04 1.19 1.24 1.25 1.34 1.38 1.39 1.36 1.33
0.53 0.52 0.51 0.50 0.53 0.53 0.50 0.47 0.48 0.48 0.47 0.48 0.48 0.50 0.53 0.54 0.53 0.52 0.53 0.52 0.53 0.54 0.53 0.52 0.52 0.53 0.55 0.54 0.53 0.53 0.52 0.56 0.57 0.59 0.59 0.60 0.61 0.66 0.71 0.79 0.87 0.90 0.95 0.99 0.97 0.91 0.90 0.92 0.93 0.93 0.96 0.95 0.79 0.76 0.92 1.02 1.12 1.13 1.28 1.38 1.40 1.40 1.36
0.52 0.51 0.50 0.50 0.51 0.51 0.50 0.49 0.48 0.49 0.51 0.51 0.52 0.53 0.51 0.54 0.55 0.54 0.52 0.51 0.51 0.51 0.50 0.51 0.50 0.50 0.52 0.54 0.55 0.55 0.56 0.58 0.59 0.60 0.63 0.63 0.61 0.61 0.64 0.70 0.75 0.83 0.93 1.02 1.00 0.96 0.91 0.92 0.93 0.94 0.95 0.91 0.90 0.81 0.75 0.84 0.90 1.00 1.12 1.30 1.27 1.33 1.40
0.51 0.50 0.49 0.51 0.53 0.52 0.49 0.48 0.49 0.49 0.49 0.52 0.54 0.56 0.56 0.53 0.52 0.54 0.53 0.53 0.52 0.51 0.51 0.52 0.52 0.52 0.53 0.50 0.50 0.53 0.57 0.60 0.60 0.61 0.61 0.63 0.66 0.66 0.63 0.64 0.72 0.75 0.78 0.84 0.90 0.94 0.98 0.97 0.94 0.93 0.93 0.93 0.95 0.86 0.82 0.74 0.72 0.87 1.01 1.15 1.32 1.35 1.43
0.52 0.50 0.50 0.52 0.53 0.49 0.49 0.51 0.51 0.52 0.52 0.54 0.52 0.49 0.50 0.51 0.51 0.51 0.51 0.49 0.49 0.49 0.50 0.51 0.52 0.51 0.52 0.51 0.50 0.48 0.52 0.57 0.57 0.57 0.59 0.61 0.64 0.69 0.69 0.65 0.68 0.75 0.78 0.75 0.77 0.87 0.97 1.00 0.97 0.98 0.95 0.95 0.93 0.96 0.87 0.75 0.65 0.92 1.03 1.02 1.20 1.40 1.42
0.54 0.53 0.52 0.51 0.51 0.50 0.51 0.51 0.51 0.49 0.50 0.51 0.50 0.51 0.51 0.50 0.49 0.48 0.49 0.48 0.47 0.47 0.48 0.50 0.51 0.51 0.51 0.50 0.50 0.48 0.48 0.51 0.53 0.56 0.58 0.61 0.63 0.66 0.69 0.69 0.68 0.70 0.79 0.81 0.80 0.79 0.80 0.90 0.95 0.95 0.95 0.92 0.91 0.92 0.90 0.80 0.73 0.87 1.02 1.08 1.21 1.31 1.40
0.54 0.54 0.54 0.54 0.52 0.52 0.53 0.53 0.52 0.52 0.52 0.50 0.51 0.50 0.49 0.49 0.48 0.48 0.48 0.47 0.46 0.46 0.46 0.47 0.50 0.51 0.50 0.49 0.50 0.49 0.48 0.47 0.47 0.50 0.56 0.58 0.61 0.63 0.67 0.67 0.68 0.69 0.72 0.75 0.81 0.85 0.84 0.89 0.95 0.93 0.94 0.98 0.94 0.90 0.85 0.80 0.76 0.84 0.97 1.09 1.21 1.29 1.38
0.56 0.55 0.55 0.55 0.53 0.53 0.53 0.53 0.52 0.52 0.50 0.50 0.51 0.50 0.50 0.49 0.49 0.49 0.48 0.47 0.47 0.47 0.46 0.47 0.49 0.50 0.50 0.49 0.49 0.50 0.48 0.46 0.44 0.46 0.50 0.53 0.57 0.60 0.62 0.64 0.65 0.69 0.73 0.72 0.74 0.75 0.82 0.82 0.78 0.78 0.84 0.88 0.91 0.94 0.96 0.86 0.79 0.80 0.84 0.99 1.03 1.19 1.28
0.56 0.55 0.54 0.54 0.54 0.54 0.54 0.54 0.54 0.52 0.51 0.52 0.53 0.53 0.52 0.51 0.50 0.49 0.47 0.47 0.48 0.48 0.48 0.47 0.48 0.49 0.50 0.50 0.50 0.50 0.51 0.49 0.46 0.43 0.43 0.46 0.51 0.56 0.58 0.60 0.64 0.68 0.71 0.71 0.72 0.75 0.78 0.78 0.78 0.73 0.71 0.76 0.82 0.91 0.96 0.96 0.90 0.86 0.89 0.92 1.00 1.02 1.13
0.56 0.55 0.54 0.55 0.54 0.55 0.55 0.54 0.54 0.53 0.52 0.52 0.52 0.53 0.52 0.51 0.49 0.47 0.47 0.46 0.46 0.47 0.48 0.48 0.48 0.49 0.50 0.51 0.51 0.52 0.52 0.51 0.50 0.46 0.44 0.43 0.44 0.49 0.54 0.56 0.60 0.67 0.69 0.70 0.72 0.74 0.75 0.77 0.75 0.73 0.74 0.80 0.88 0.91 0.97 1.02 1.03 0.94 0.93 0.91 0.98 0.99 1.04
0.56 0.55 0.55 0.54 0.54 0.54 0.54 0.54 0.54 0.53 0.52 0.52 0.53 0.52 0.51 0.51 0.49 0.47 0.45 0.45 0.45 0.46 0.47 0.48 0.48 0.49 0.50 0.52 0.53 0.54 0.53 0.53 0.53 0.52 0.50 0.47 0.45 0.44 0.48 0.53 0.56 0.61 0.66 0.66 0.69 0.73 0.76 0.73 0.74 0.75 0.75 0.81 0.84 0.89 0.98 1.03 1.06 1.06 0.99 0.95 0.99 1.05 1.04
0.55 0.54 0.54 0.54 0.54 0.54 0.55 0.54 0.53 0.53 0.54 0.52 0.51 0.50 0.49 0.48 0.47 0.46 0.45 0.45 0.45 0.46 0.47 0.48 0.48 0.48 0.49 0.51 0.54 0.55 0.55 0.55 0.55 0.55 0.55 0.54 0.51 0.47 0.45 0.47 0.54 0.58 0.61 0.62 0.62 0.67 0.72 0.75 0.77 0.77 0.75 0.83 0.94 1.01 1.03 1.05 1.07 1.08 1.08 1.03 1.01 0.98 1.01
0.54 0.54 0.54 0.55 0.56 0.55 0.54 0.54 0.52 0.52 0.53 0.51 0.49 0.48 0.48 0.46 0.46 0.46 0.46 0.46 0.46 0.46 0.47 0.48 0.48 0.50 0.51 0.52 0.54 0.55 0.55 0.55 0.55 0.56 0.56 0.56 0.56 0.55 0.51 0.47 0.48 0.54 0.58 0.62 0.64 0.62 0.64 0.70 0.76 0.79 0.82 0.81 0.88 0.99 1.07 1.11 1.07 1.06 1.15 1.12 1.09 1.05 1.02
0.55 0.54 0.56 0.57 0.55 0.54 0.53 0.53 0.51 0.51 0.51 0.49 0.48 0.47 0.45 0.45 0.46 0.46 0.46 0.47 0.47 0.48 0.47 0.47 0.48 0.49 0.50 0.51 0.52 0.52 0.54 0.54 0.54 0.55 0.55 0.56 0.57 0.57 0.57 0.54 0.50 0.49 0.54 0.60 0.64 0.66 0.66 0.62 0.67 0.73 0.83 0.87 0.87 0.88 0.88 0.94 1.07 1.09 1.05 1.07 1.09 1.11 1.07
0.57 0.56 0.56 0.54 0.53 0.51 0.51 0.52 0.51 0.50 0.49 0.48 0.47 0.47 0.47 0.46 0.46 0.46 0.47 0.47 0.47 0.48 0.47 0.47 0.48 0.49 0.50 0.52 0.53 0.52 0.52 0.53 0.53 0.52 0.53 0.55 0.56 0.57 0.58 0.58 0.57 0.52 0.49 0.53 0.60 0.64 0.67 0.68 0.65 0.62 0.71 0.84 0.88 0.88 0.88 0.92 0.96 0.99 1.05 1.05 1.04 1.13 1.11
0.54 0.55 0.54 0.52 0.51 0.51 0.51 0.51 0.50 0.49 0.48 0.48 0.47 0.46 0.46 0.46 0.46 0.46 0.46 0.46 0.46 0.46 0.46 0.47 0.48 0.49 0.51 0.51 0.51 0.52 0.52 0.52 0.52 0.53 0.53 0.53 0.54 0.54 0.56 0.57 0.58 0.58 0.55 0.51 0.52 0.57 0.61 0.64 0.65 0.64 0.62 0.68 0.78 0.84 0.88 0.86 0.86 0.89 0.95 0.98 1.03 1.06 1.12
0.54 0.53 0.52 0.51 0.51 0.50 0.50 0.50 0.50 0.49 0.48 0.47 0.46 0.46 0.46 0.45 0.45 0.46 0.45 0.45 0.44 0.45 0.46 0.48 0.49 0.50 0.50 0.51 0.51 0.51 0.50 0.50 0.51 0.50 0.50 0.50 0.50 0.52 0.54 0.56 0.57 0.58 0.58 0.57 0.53 0.49 0.54 0.58 0.60 0.62 0.62 0.62 0.68 0.77 0.79 0.84 0.89 0.92 0.93 0.96 0.95 0.94 0.96
0.53 0.52 0.51 0.49 0.49 0.49 0.50 0.49 0.48 0.47 0.47 0.45 0.46 0.46 0.46 0.45 0.45 0.45 0.44 0.43 0.43 0.44 0.46 0.48 0.49 0.50 0.51 0.51 0.51 0.51 0.51 0.50 0.50 0.50 0.50 0.49 0.50 0.50 0.51 0.52 0.54 0.57 0.58 0.58 0.60 0.57 0.52 0.52 0.55 0.58 0.60 0.61 0.62 0.67 0.77 0.79 0.80 0.87 0.96 0.99 0.93 0.86 0.84
0.51 0.50 0.49 0.49 0.49 0.49 0.49 0.48 0.47 0.46 0.45 0.46 0.46 0.45 0.45 0.45 0.44 0.44 0.43 0.41 0.42 0.45 0.46 0.49 0.49 0.50 0.50 0.50 0.51 0.51 0.50 0.50 0.50 0.49 0.49 0.49 0.49 0.50 0.50 0.50 0.50 0.52 0.55 0.58 0.60 0.60 0.61 0.57 0.55 0.55 0.57 0.58 0.59 0.61 0.64 0.70 0.77 0.80 0.84 0.93 1.02 0.99 0.88
0.49 0.48 0.48 0.48 0.48 0.48 0.47 0.47 0.46 0.46 0.46 0.46 0.45 0.45 0.44 0.44 0.44 0.43 0.42 0.43 0.43 0.45 0.46 0.48 0.49 0.49 0.49 0.50 0.50 0.50 0.49 0.49 0.50 0.49 0.49 0.50 0.49 0.49 0.49 0.49 0.48 0.48 0.50 0.53 0.56 0.59 0.61 0.61 0.59 0.57 0.58 0.57 0.56 0.57 0.59 0.62 0.68 0.73 0.79 0.84 0.93 1.01 1.08
0.47 0.47 0.48 0.48 0.48 0.47 0.47 0.46 0.45 0.45 0.45 0.44 0.43 0.43 0.43 0.42 0.42 0.42 0.43 0.44 0.44 0.44 0.46 0.48 0.48 0.48 0.48 0.49 0.50 0.50 0.50 0.50 0.49 0.48 0.49 0.49 0.49 0.49 0.49 0.49 0.48 0.47 0.49 0.51 0.52 0.54 0.59 0.62 0.64 0.62 0.61 0.61 0.61 0.59 0.59 0.60 0.61 0.66 0.72 0.77 0.85 0.95 1.10
0.47 0.46 0.46 0.47 0.47 0.47 0.47 0.46 0.44 0.44 0.43 0.43 0.44 0.44 0.44 0.44 0.42 0.41 0.42 0.43 0.43 0.43 0.45 0.47 0.47 0.47 0.48 0.48 0.49 0.49 0.49 0.49 0.48 0.48 0.49 0.49 0.49 0.49 0.49 0.49 0.47 0.47 0.47 0.48 0.50 0.52 0.55 0.59 0.61 0.64 0.67 0.68 0.66 0.65 0.64 0.64 0.67 0.69 0.72 0.76 0.80 0.86 0.96
0.46 0.45 0.46 0.46 0.46 0.46 0.46 0.46 0.44 0.43 0.41 0.41 0.42 0.43 0.42 0.41 0.40 0.41 0.43 0.43 0.43 0.42 0.43 0.45 0.46 0.47 0.47 0.48 0.48 0.48 0.48 0.48 0.48 0.47 0.47 0.49 0.49 0.49 0.50 0.49 0.49 0.48 0.47 0.47 0.49 0.51 0.52 0.56 0.58 0.59 0.62 0.66 0.69 0.67 0.64 0.66 0.70 0.73 0.74 0.76 0.79 0.84 0.90
0.45 0.46 0.47 0.46 0.46 0.46 0.46 0.44 0.42 0.41 0.39 0.41 0.41 0.42 0.41 0.40 0.41 0.43 0.43 0.42 0.42 0.42 0.43 0.45 0.45 0.46 0.47 0.47 0.48 0.47 0.47 0.47 0.47 0.47 0.48 0.49 0.50 0.50 0.50 0.50 0.50 0.49 0.48 0.47 0.50 0.51 0.51 0.52 0.54 0.57 0.60 0.63 0.64 0.65 0.67 0.70 0.72 0.77 0.81 0.81 0.81 0.81 0.86
0.44 0.44 0.44 0.44 0.45 0.44 0.42 0.41 0.39 0.39 0.41 0.42 0.41 0.40 0.39 0.40 0.41 0.43 0.43 0.43 0.43 0.43 0.43 0.44 0.45 0.46 0.47 0.48 0.48 0.48 0.48 0.48 0.47 0.47 0.49 0.49 0.52 0.52 0.52 0.52 0.51 0.51 0.50 0.50 0.50 0.51 0.52 0.53 0.52 0.54 0.59 0.63 0.63 0.62 0.66 0.71 0.71 0.76 0.80 0.82 0.84 0.87 0.86
0.44 0.45 0.44 0.43 0.42 0.40 0.39 0.37 0.37 0.39 0.40 0.40 0.38 0.38 0.40 0.41 0.41 0.42 0.44 0.44 0.44 0.44 0.44 0.44 0.46 0.47 0.47 0.48 0.49 0.50 0.51 0.50 0.48 0.50 0.51 0.52 0.52 0.53 0.54 0.54 0.54 0.53 0.52 0.52 0.52 0.52 0.53 0.55 0.54 0.54 0.58 0.61 0.64 0.64 0.72 0.73 0.75 0.80 0.84 0.84 0.87 0.90 0.87
0.39 0.38 0.38 0.38 0.39 0.38 0.39 0.37 0.36 0.37 0.38 0.37 0.37 0.39 0.40 0.41 0.42 0.44 0.45 0.45 0.45 0.46 0.46 0.46 0.47 0.48 0.49 0.50 0.52 0.53 0.53 0.54 0.55 0.55 0.55 0.56 0.56 0.55 0.55 0.56 0.56 0.56 0.55 0.54 0.54 0.54 0.55 0.56 0.55 0.54 0.56 0.58 0.62 0.70 0.77 0.77 0.79 0.83 0.85 0.87 0.88 0.91 0.92
0.37 0.38 0.39 0.39 0.39 0.38 0.38 0.37 0.36 0.36 0.36 0.36 0.37 0.38 0.40 0.42 0.43 0.44 0.46 0.47 0.47 0.47 0.48 0.48 0.48 0.50 0.52 0.54 0.55 0.57 0.57 0.59 0.62 0.62 0.60 0.60 0.60 0.60 0.60 0.60 0.59 0.60 0.59 0.57 0.57 0.56 0.57 0.57 0.57 0.55 0.53 0.58 0.64 0.70 0.71 0.75 0.80 0.85 0.85 0.85 0.86 0.88 0.90
0.37 0.37 0.37 0.37 0.36 0.33 0.33 0.33 0.33 0.34 0.35 0.36 0.36 0.37 0.39 0.42 0.43 0.43 0.45 0.47 0.48 0.48 0.50 0.51 0.52 0.53 0.55 0.57 0.59 0.61 0.63 0.64 0.66 0.67 0.64 0.63 0.63 0.64 0.65 0.64 0.64 0.63 0.61 0.60 0.59 0.58 0.58 0.58 0.58 0.56 0.54 0.57 0.65 0.69 0.70 0.70 0.74 0.79 0.82 0.83 0.84 0.84 0.88
0.33 0.33 0.33 0.32 0.30 0.30 0.33 0.35 0.35 0.35 0.35 0.34 0.35 0.36 0.39 0.41 0.42 0.43 0.44 0.46 0.48 0.51 0.53 0.54 0.55 0.56 0.58 0.60 0.62 0.64 0.65 0.66 0.66 0.66 0.66 0.64 0.66 0.66 0.66 0.66 0.66 0.65 0.63 0.62 0.61 0.59 0.60 0.60 0.60 0.59 0.58 0.59 0.65 0.69 0.70 0.69 0.71 0.76 0.80 0.81 0.82 0.84 0.87
Wind_Speed
13 14 14 13 13 13 14 14 14 15 15 16 17 18 18 19 20 20 21 22 23 24 24 24 24 25 25 26 26 26 27 28 29 30 30 31 32 33 34 35 34 32 31 31 30 27 26 26 27 28 28 28 28 29 30 30 31 31 31 32 31 31 31
15 15 15 14 14 14 14 15 15 15 16 16 17 17 18 19 19 20 21 21 22 23 24 24 25 25 26 27 27 27 27 29 29 30 30 31 31 32 33 35 36 35 34 32 31 31 29 28 28 28 28 28 28 29 30 31 31 31 32 32 32 32 31
16 16 16 16 16 16 15 15 16 16 16 17 17 17 18 18 19 19 20 21 22 22 23 24 25 26 26 27 28 29 29 29 30 31 31 32 32 32 33 34 36 37 36 35 32 32 32 31 29 28 27 27 28 29 30 31 31 32 31 31 32 32 32
17 17 17 17 17 17 16 16 16 17 17 17 18 18 18 19 19 20 20 21 22 22 23 24 25 26 26 27 28 29 30 31 31 31 32 32 33 33 34 34 35 36 37 37 35 33 33 33 32 31 29 27 27 29 30 31 32 32 32 31 31 32 32
19 19 18 18 18 18 18 17 17 17 17 18 18 18 19 19 20 21 21 22 22 23 23 24 25 26 26 27 28 29 30 31 32 32 33 33 34 35 35 35 36 36 37 37 36 36 35 35 34 33 32 29 28 27 27 29 32 32 32 32 31 31 32
20 20 20 19 19 19 19 19 19 19 19 19 19 19 20 20 21 22 22 23 23 24 25 25 26 27 27 28 29 29 30 31 32 33 34 34 35 36 36 36 37 37 37 37 37 37 36 36 35 35 34 32 30 29 27 26 29 32 33 32 31 32 31
21 21 21 20 20 20 20 20 20 20 20 20 21 21 21 22 22 23 24 24 25 26 26 27 27 28 29 29 29 30 31 31 32 33 34 35 35 36 37 37 38 38 38 38 38 38 37 36 36 36 36 35 34 33 30 27 26 28 31 32 32 32 32
22 22 22 21 21 21 21 21 21 22 22 22 22 23 23 23 23 24 25 25 26 27 28 28 28 29 29 30 30 31 31 32 33 33 34 35 36 37 37 38 38 39 39 39 39 39 38 38 37 37 37 37 37 36 34 31 28 27 29 30 32 32 33
22 23 23 22 22 22 22 22 22 23 23 23 24 24 24 25 25 26 26 26 27 28 28 29 29 29 30 30 31 31 32 32 33 34 34 35 36 37 38 38 39 39 39 40 40 40 40 40 39 38 39 39 38 38 37 36 34 31 29 29 30 31 32
23 23 23 23 23 23 23 23 23 24 24 24 25 25 25 26 27 27 27 28 28 28 28 28 29 29 30 31 32 32 32 32 33 34 34 35 36 37 38 39 39 39 40 40 40 41 41 41 41 40 40 40 39 39 38 39 38 36 34 32 30 30 32
24 24 24 24 24 24 24 24 25 25 25 25 25 26 26 27 28 28 29 29 29 29 29 29 29 30 30 32 33 33 33 33 33 34 34 35 35 36 37 38 39 40 40 40 40 40 41 42 41 41 41 41 40 40 39 39 39 39 37 36 33 30 30
25 25 25 25 25 25 26 26 26 26 26 26 27 27 28 28 29 29 30 30 30 30 30 30 30 30 31 32 33 34 34 34 34 35 35 36 36 36 36 38 38 39 40 40 40 40 41 42 42 41 41 42 41 41 40 38 39 38 38 38 37 33 30
25 26 26 26 26 27 27 27 27 27 28 28 28 29 29 29 30 30 31 31 31 31 31 31 31 31 32 32 33 33 34 35 35 36 36 36 36 36 36 37 37 38 39 40 40 40 41 41 42 42 42 42 42 42 41 40 38 38 37 37 38 36 33
26 26 27 27 27 28 28 28 28 29 29 29 30 30 30 31 31 31 31 32 32 32 32 32 32 32 32 33 33 34 34 35 36 36 36 36 37 37 37 37 37 37 38 39 40 40 40 40 41 42 42 42 43 42 42 41 40 38 38 37 38 38 36
26 27 27 28 28 29 29 29 30 30 30 30 31 31 31 31 32 32 32 33 33 33 33 33 33 33 33 34 34 34 35 35 36 37 37 37 38 38 38 38 38 37 38 39 39 40 40 41 41 42 42 42 43 43 43 43 41 40 39 38 39 39 38
27 27 28 29 29 30 30 30 30 31 31 31 31 31 32 32 32 33 33 33 33 33 34 34 34 34 34 34 35 35 35 36 36 37 38 38 39 39 40 40 39 38 38 39 39 39 40 41 41 42 42 42 43 43 43 43 43 41 40 39 39 39 39
28 28 29 29 30 30 30 30 31 31 31 31 32 32 32 33 33 34 34 34 34 35 35 35 35 35 35 35 36 36 36 36 37 37 38 39 39 40 41 41 41 40 39 40 40 39 39 40 41 41 42 42 43 43 43 43 44 43 42 40 40 40 40
28 28 29 29 30 30 30 31 31 31 31 32 32 33 33 34 34 35 35 35 35 36 36 36 36 36 36 37 37 37 37 37 37 38 38 39 40 40 41 42 42 42 41 41 41 40 40 40 41 41 42 42 42 43 43 43 43 43 43 42 40 40 41
28 28 28 29 29 30 30 31 31 32 32 33 33 34 35 35 36 36 36 36 36 37 37 37 37 38 38 38 38 38 38 38 38 38 38 39 39 40 41 42 43 43 43 43 42 42 41 40 40 41 42 42 42 42 42 42 42 43 43 43 42 41 41
27 27 28 28 29 29 30 31 31 32 33 34 35 35 36 37 37 37 37 37 37 37 37 38 38 39 39 39 39 39 39 39 39 39 39 39 39 40 41 42 43 44 44 44 43 43 43 42 41 40 41 42 42 42 42 42 43 42 42 42 42 42 42
26 26 26 27 28 29 30 30 31 32 33 34 35 36 37 37 37 37 37 37 37 37 38 38 38 39 39 39 39 39 39 40 39 39 40 40 40 40 41 42 43 44 44 44 44 44 43 43 43 42 40 40 42 42 42 42 43 43 42 42 42 42 42
25 25 26 27 28 28 29 30 31 32 34 35 35 36 36 36 37 37 37 37 37 38 38 38 39 39 40 40 40 40 40 40 40 40 40 40 40 41 41 42 42 43 44 45 45 45 45 44 44 44 42 41 40 41 42 42 43 43 43 42 42 41 42
24 25 26 27 27 28 29 30 31 32 34 34 35 35 36 36 36 37 37 37 38 38 38 39 39 40 40 41 41 41 42 42 42 42 41 41 41 41 41 42 42 43 44 45 45 46 47 46 46 46 46 44 42 41 41 41 42 43 43 43 43 43 42
24 25 25 26 27 28 29 30 31 32 33 34 34 35 35 36 36 37 37 38 38 38 39 39 39 40 41 41 42 43 44 44 44 44 44 44 43 43 43 42 42 43 43 44 44 45 47 48 48 48 48 48 47 45 43 42 42 42 43 44 44 45 45
24 24 25 26 27 28 29 31 32 33 33 34 34 35 35 36 37 37 37 38 38 38 39 39 40 40 41 42 42 43 44 45 45 45 45 45 45 45 45 44 44 43 43 43 43 44 45 46 47 48 49 49 49 49 48 46 44 43 43 44 45 46 47
23 24 25 26 28 29 30 31 32 33 34 34 35 35 35 36 37 37 37 38 38 38 38 39 39 40 41 42 43 43 44 45 46 46 47 47 47 47 46 46 46 45 45 44 43 43 44 45 45 47 48 49 50 51 51 50 49 47 45 45 45 46 47
23 24 25 27 28 29 30 31 32 33 34 34 35 35 36 36 37 37 37 38 38 38 38 39 39 40 41 42 43 44 45 46 47 47 48 48 48 48 48 48 47 47 47 46 45 44 44 44 44 45 46 48 49 50 51 52 52 51 49 48 47 47 46
23 24 25 27 29 30 31 32 33 33 34 34 35 35 36 36 37 37 37 38 38 38 38 39 40 41 42 43 44 44 45 46 47 48 49 50 50 50 50 50 50 49 48 48 48 47 45 44 44 45 45 47 48 48 49 50 51 52 51 50 50 49 47
23 25 26 28 29 30 31 32 33 33 34 34 35 36 36 36 37 37 38 38 38 39 39 40 41 41 42 43 44 44 45 47 48 49 49 50 50 51 51 51 52 51 51 50 49 49 48 47 46 46 46 45 46 47 47 48 48 50 51 51 51 50 50
24 26 27 28 29 30 31 32 33 34 34 35 35 35 36 36 37 38 38 38 39 40 40 41 41 42 43 44 44 45 46 47 49 49 50 50 50 51 51 52 52 52 52 52 50 50 51 50 49 48 47 46 45 46 46 46 46 47 48 50 51 51 51
25 27 27 28 29 30 31 32 33 34 34 34 34 35 36 36 37 37 38 38 39 40 41 41 42 43 43 44 45 46 47 48 49 50 51 51 51 51 52 52 53 53 53 52 51 51 51 51 51 50 48 47 46 45 44 44 44 44 45 46 48 49 50
26 27 28 29 30 31 32 33 33 33 33 34 35 35 35 36 36 37 37 38 39 40 41 41 42 43 43 45 46 47 48 49 50 50 51 51 51 52 52 52 53 53 53 53 53 52 52 51 52 51 49 47 47 45 44 43 42 42 42 43 44 46 47
26 27 28 29 30 31 32 33 33 33 32 33 34 34 34 35 36 37 37 38 39 40 41 41 42 43 44 45 45 46 47 48 49 49 49 50 50 50 51 51 51 52 53 53 53 53 53 53 53 52 50 48 47 44 42 42 42 42 41 41 42 43 45
26 27 29 30 31 31 32 32 32 32 32 32 33 33 34 35 36 37 37 38 39 39 40 41 41 42 43 44 44 45 45 45 45 46 47 47 48 48 48 48 48 49 50 51 52 52 52 53 53 53 52 51 48 45 42 40 41 41 40 40 40 41 43
27 28 30 30 30 31 31 31 30 31 31 31 31 32 33 34 35 36 36 37 38 38 39 40 41 42 43 43 43 43 42 42 42 43 43 44 44 45 45 46 46 47 47 48 49 49 50 51 52 52 53 52 50 48 44 41 40 40 39 39 39 40 41
27 29 29 29 29 30 29 29 29 29 29 29 30 31 32 33 34 36 36 37 37 38 39 40 41 41 42 41 41 40 39 40 40 40 40 41 41 42 43 43 44 45 45 45 46 47 48 49 49 50 51 52 51 49 46 43 41 40 39 38 38 39 40
27 27 27 28 28 28 27 27 27 27 27 28 29 31 32 33 34 35 36 37 37 38 39 39 39 39 38 37 37 36 37 37 37 38 38 39 39 40 41 41 41 42 43 44 44 45 46 46 47 47 48 50 50 49 46 44 41 40 38 37 38 38 39
Wind_Direction
252 255 259 261 264 266 267 268 268 267 265 262 262 263 263 263 262 262 261 260 259 258 258 258 258 258 257 256 256 254 252 250 248 247 246 245 245 244 244 243 242 243 245 246 248 251 252 250 248 248 248 248 249 249 249 249 249 248 247 246 246 246 246
254 257 258 258 261 264 266 268 268 268 267 265 265 264 264 265 265 264 264 263 261 260 259 258 258 258 258 257 257 256 254 252 250 249 248 247 246 246 245 244 243 244 245 247 248 249 251 252 251 250 250 250 250 251 250 249 249 249 248 248 247 246 246
255 257 257 257 261 263 264 265 267 267 267 266 266 266 266 267 267 268 268 266 265 264 263 261 260 259 259 258 258 257 256 254 253 251 250 249 248 247 247 245 244 244 245 247 249 249 248 250 251 251 252 252 254 254 252 250 250 248 248 248 247 246 247
256 257 258 258 259 262 262 263 265 266 266 267 268 268 268 268 268 269 270 269 268 267 266 264 263 261 260 260 259 258 257 256 255 254 252 250 249 248 248 247 246 245 246 247 248 248 248 249 250 251 252 255 258 259 255 252 251 249 247 247 246 247 248
257 257 258 258 258 260 262 263 264 264 264 265 267 268 268 269 270 270 270 270 270 270 269 267 265 264 263 261 260 259 258 258 257 256 254 251 249 249 248 248 247 246 247 248 248 248 249 249 250 251 252 254 256 260 260 255 252 250 248 247 247 247 248
257 258 258 258 259 260 262 262 263 263 264 264 265 267 269 271 272 272 272 272 271 271 271 270 268 267 265 263 262 260 259 258 257 257 256 254 252 251 249 248 248 247 248 248 248 249 250 250 249 249 250 250 251 257 262 260 256 252 248 248 248 248 248
258 259 259 260 260 261 262 262 263 264 264 265 265 267 269 271 273 274 275 274 274 273 272 271 270 268 267 265 263 261 260 258 257 257 256 256 254 253 251 250 249 249 249 248 248 248 249 249 249 248 248 249 250 254 258 260 260 255 249 248 249 248 248
260 260 260 261 261 262 264 264 265 265 266 266 267 268 269 270 273 274 276 276 276 276 274 273 270 269 267 265 264 262 261 260 259 257 257 256 256 254 252 252 251 250 250 249 248 248 248 248 250 249 248 249 251 252 253 255 257 255 252 251 250 249 249
260 261 261 261 262 263 265 266 266 267 267 268 269 269 270 271 273 275 276 277 277 276 275 273 271 270 267 265 264 263 262 261 260 258 257 257 256 255 254 253 252 251 250 250 249 248 248 248 249 250 249 249 250 251 251 252 253 253 253 253 252 250 249
260 260 261 261 262 264 265 266 267 268 268 269 270 271 272 273 274 275 277 277 277 276 274 273 271 270 269 266 265 264 263 262 261 259 259 258 257 256 255 254 253 252 251 250 250 249 248 248 249 249 250 249 249 251 251 250 252 252 250 251 254 254 251
260 261 261 262 263 265 266 267 268 269 269 271 272 273 274 275 276 277 277 278 277 275 274 273 271 270 269 267 266 265 264 263 262 260 259 258 257 257 256 255 254 253 252 251 250 250 249 248 248 248 249 250 249 250 250 251 253 251 247 247 251 255 254
261 261 262 262 264 266 267 268 269 270 271 272 273 274 276 277 277 278 278 278 277 276 274 272 272 270 269 268 267 265 264 263 263 261 260 259 258 257 257 256 254 253 253 252 251 250 249 248 248 248 249 249 249 249 249 252 253 250 246 245 247 250 254
262 262 262 263 264 266 267 268 270 271 272 274 275 276 277 278 278 278 278 278 278 277 275 273 272 271 270 269 268 267 265 264 262 262 261 259 258 258 257 257 255 254 253 252 251 251 249 248 247 248 248 248 248 248 249 251 252 248 246 246 245 246 251
263 263 263 263 264 266 267 269 270 272 274 275 276 277 277 278 278 278 278 278 278 278 276 274 272 271 270 269 268 268 266 265 263 261 261 260 258 258 258 258 257 255 254 253 252 251 249 248 247 247 248 248 248 248 248 249 250 248 246 246 245 245 249
264 264 264 264 266 267 269 270 272 273 275 276 277 277 278 278 278 278 278 278 277 277 276 274 273 272 271 270 269 268 267 266 264 262 260 259 258 257 257 257 257 256 254 253 252 251 250 249 248 248 247 248 248 248 247 248 248 248 246 245 245 246 247
265 265 265 266 267 268 270 271 273 274 275 276 277 277 278 278 278 278 278 277 276 276 275 274 273 272 271 270 269 268 267 266 264 263 261 259 258 257 256 255 255 255 255 254 253 252 251 250 249 249 248 247 248 248 247 247 246 246 245 245 245 244 245
265 266 266 267 268 269 271 272 273 275 276 277 277 277 278 278 278 278 278 277 276 275 274 273 272 272 271 270 269 268 267 266 265 263 261 260 258 257 256 255 254 254 254 254 254 253 252 250 250 249 248 248 248 248 248 246 245 245 245 245 244 243 243
266 266 267 269 270 270 272 273 274 275 276 277 278 278 278 278 278 278 277 277 276 275 274 273 272 271 270 270 269 268 267 266 265 263 262 260 259 257 256 255 253 253 252 253 253 252 252 251 250 249 249 248 248 248 248 246 245 244 244 243 243 243 242
267 267 268 269 271 271 273 274 275 276 277 278 278 278 279 278 278 278 277 277 276 275 274 273 272 271 270 270 269 268 267 266 264 264 262 261 259 257 256 255 254 252 251 252 252 251 251 251 250 249 249 249 248 248 247 246 245 244 243 242 242 242 241
268 269 269 271 272 273 274 275 276 277 277 278 279 279 279 279 279 278 278 277 276 275 274 273 272 271 270 269 268 267 266 265 264 263 262 261 260 258 257 256 254 253 251 251 251 251 250 250 250 250 249 249 249 248 246 246 246 245 242 242 242 241 239
269 271 271 272 273 274 275 276 277 278 278 279 280 280 280 279 279 278 277 276 275 274 274 273 272 271 270 269 268 267 266 265 264 263 262 261 260 259 258 256 255 254 252 251 250 250 250 249 249 250 249 249 249 248 247 246 245 244 242 242 242 241 239
270 271 272 273 275 276 277 277 278 279 280 280 280 280 280 279 279 278 277 276 275 274 273 272 271 271 270 269 267 266 265 265 264 263 262 261 260 259 258 257 256 254 253 252 250 250 249 249 249 249 248 249 249 249 248 246 244 243 242 241 240 240 240
271 273 274 276 277 278 278 279 279 280 281 281 281 281 280 280 279 279 278 277 276 275 273 273 272 271 270 269 268 266 265 265 264 263 262 261 260 259 258 257 256 255 254 253 252 250 249 249 248 248 248 248 248 248 248 247 245 243 242 241 239 239 239
272 275 277 278 279 279 279 280 280 281 282 282 282 282 282 281 280 280 279 278 277 275 274 273 273 271 270 269 268 267 266 265 264 263 262 261 260 259 257 256 256 255 254 254 253 252 250 249 248 248 248 247 247 247 247 248 247 244 242 241 240 238 238
273 275 277 279 280 280 281 281 282 283 283 283 283 283 283 283 282 281 280 279 277 276 275 274 274 273 272 270 269 268 267 266 265 263 262 261 260 259 257 256 255 254 254 254 253 252 251 250 249 248 247 247 246 246 245 246 246 245 243 242 241 239 238
274 276 278 280 280 282 282 282 283 284 285 285 285 284 284 284 283 282 281 280 278 277 276 275 275 274 273 271 270 269 267 266 265 264 262 261 260 258 257 256 255 254 253 253 253 252 252 251 250 249 248 247 247 246 245 245 245 245 244 244 242 240 239
275 278 280 281 282 283 283 284 285 285 286 286 286 286 286 285 284 283 281 280 279 278 277 276 276 275 274 273 271 270 268 267 265 264 263 261 260 259 257 256 255 253 252 251 251 251 252 252 251 250 249 247 247 246 246 245 244 244 244 243 242 242 240
277 280 282 283 284 284 285 286 287 287 288 288 288 288 287 286 284 283 282 281 280 279 278 277 276 275 275 274 273 271 270 268 267 265 264 262 261 259 258 256 254 253 252 251 250 250 251 251 251 251 250 248 247 246 246 245 244 243 243 242 241 241 241
278 282 284 286 286 287 287 288 289 290 290 290 290 289 288 286 285 284 283 282 281 279 279 278 277 276 275 274 273 272 271 269 268 266 265 263 262 260 258 256 255 253 252 250 249 249 249 250 251 251 251 250 248 246 245 245 245 243 242 241 240 239 239
279 283 286 288 289 290 290 291 293 293 293 293 292 290 288 287 286 285 284 283 282 281 280 279 279 278 277 276 274 273 271 270 269 267 265 264 262 260 259 257 255 253 251 250 249 249 249 249 249 250 250 250 249 247 245 244 245 244 242 240 239 238 237
281 285 289 291 293 293 294 294 295 295 294 294 293 291 290 289 287 286 285 285 284 283 282 281 281 280 278 277 276 274 273 271 270 268 266 265 263 261 259 257 255 253 251 250 249 248 249 248 247 248 248 249 249 248 246 244 243 243 242 240 238 237 235
285 288 291 293 294 295 296 296 296 295 294 294 293 292 291 290 289 288 287 287 286 285 284 283 283 282 281 280 278 277 274 272 270 269 267 265 263 261 259 257 254 252 251 250 248 248 248 248 246 245 246 247 247 247 246 243 242 241 240 238 237 236 233
287 290 292 295 295 296 296 296 296 295 295 295 294 293 292 291 290 290 289 289 288 287 286 286 285 284 284 283 281 279 276 273 271 269 267 265 263 261 259 257 254 252 250 249 248 247 247 247 245 243 243 244 244 244 244 243 241 239 238 237 235 234 232
289 292 293 295 295 295 296 296 296 297 297 296 295 294 294 293 293 292 291 291 290 289 288 288 287 286 286 285 284 281 278 274 271 269 267 264 262 260 258 256 254 252 250 248 247 246 246 246 245 242 240 240 240 241 242 241 239 237 236 235 234 232 231
291 293 295 295 295 296 296 297 297 298 298 297 296 296 296 296 295 294 293 293 292 292 291 290 289 288 287 286 285 282 279 275 272 270 267 265 262 260 258 256 254 252 250 247 246 245 245 244 243 241 238 237 237 238 239 239 237 234 233 233 232 231 229
294 295 296 296 296 297 297 297 298 299 298 297 297 298 298 299 298 297 296 295 295 294 293 292 291 290 289 287 286 283 279 276 273 271 268 265 262 260 258 256 254 251 249 246 245 244 243 242 241 239 236 234 234 234 236 236 235 232 231 231 231 229 228
297 298 297 297 297 297 297 298 299 300 299 299 299 300 300 301 301 301 299 298 297 296 295 293 292 292 290 288 287 285 283 279 275 272 270 266 263 260 257 255 252 250 247 245 243 242 240 238 238 237 234 232 230 231 232 233 232 229 228 229 229 228 227